User: anonymous   Login
Location: Chicago
(41.7813°N, 87.6051°W)
Time: 16:35:27
(UTC-06:00)
Language:

ISS - Orbit

View from above orbital plane
View from above orbital plane
View from above satellite
View from above satellite

Ground track
Ground track

The orbit data is extracted from the following two-line orbital elements,

1 25544U 98067A   17353.41580868  .00016717  00000-0  10270-3 0  9073
2 25544  51.6401 194.9359 0002840 265.5225  94.5603 15.54171814 10555
Epoch (UTC): 19 December 2017 09:58:45
Eccentricity: 0.0002840
inclination: 51.6401°
perigee height: 402 km
apogee height: 406 km
right ascension of ascending node: 194.9359°
argument of perigee: 265.5225°
revolutions per day: 15.54171814
mean anomaly at epoch: 94.5603°
orbit number at epoch: 1055

The dashed part of the orbit path shows where the satellite is in the earth's shadow,  

DLR